Time,TemperatureF,DewpointF,PressureIn,WindDirection,WindDirectionDegrees,WindSpeedMPH,WindSpeedGustMPH,Humidity,HourlyPrecipIn,Conditions,Clouds,dailyrainin,SolarRadiationWatts/m^2,SoftwareType,DateUTC
2013-03-12 00:02:00,47.0,46.0,-100.00,WNW,292,7.0,10.0,98,0.00,,,0.00,0.000000,,2013-03-12 07:02:00,
2013-03-12 00:12:00,47.0,46.0,-100.00,WNW,292,7.0,10.0,98,0.00,,,0.00,0.000000,,2013-03-12 07:12:00,
2013-03-12 00:32:00,47.0,46.0,-100.00,South,171,3.0,11.0,98,0.00,,,0.00,0.000000,,2013-03-12 07:32:00,
2013-03-12 00:42:00,47.0,46.0,-100.00,South,171,3.0,11.0,98,0.00,,,0.00,0.000000,,2013-03-12 07:42:00,
2013-03-12 00:52:00,47.0,46.0,-100.00,South,171,3.0,11.0,98,0.00,,,0.00,0.000000,,2013-03-12 07:52:00,
2013-03-12 01:02:00,47.0,46.0,-100.00,South,171,3.0,11.0,98,0.00,,,0.00,0.000000,,2013-03-12 08:02:00,
2013-03-12 01:12:00,47.0,46.0,-100.00,South,171,3.0,11.0,98,0.00,,,0.00,0.000000,,2013-03-12 08:12:00,
2013-03-12 01:42:00,47.0,46.0,-100.00,SE,133,4.0,6.0,98,0.00,,,0.00,0.000000,,2013-03-12 08:42:00,
2013-03-12 01:52:00,47.0,46.0,-100.00,SE,133,4.0,6.0,98,0.00,,,0.00,0.000000,,2013-03-12 08:52:00,
2013-03-12 02:11:00,47.0,46.0,-100.00,SE,133,4.0,6.0,98,0.00,,,0.00,0.000000,,2013-03-12 09:11:00,
2013-03-12 02:33:00,46.0,45.0,-100.00,SE,139,2.0,6.0,98,0.00,,,0.00,0.000000,,2013-03-12 09:33:00,
2013-03-12 02:42:00,46.0,45.0,-100.00,SE,139,2.0,6.0,98,0.00,,,0.00,0.000000,,2013-03-12 09:42:00,
2013-03-12 02:52:00,46.0,45.0,-100.00,SE,139,2.0,6.0,98,0.00,,,0.00,0.000000,,2013-03-12 09:52:00,
2013-03-12 03:02:00,46.0,45.0,-100.00,SE,139,2.0,6.0,98,0.00,,,0.00,0.000000,,2013-03-12 10:02:00,
2013-03-12 03:12:00,46.0,45.0,-100.00,SE,139,2.0,6.0,98,0.00,,,0.00,0.000000,,2013-03-12 10:12:00,
2013-03-12 03:33:00,45.0,45.0,-100.00,SE,126,4.0,5.0,99,0.00,,,0.00,0.000000,,2013-03-12 10:33:00,
2013-03-12 03:42:00,45.0,45.0,-100.00,SE,126,4.0,5.0,99,0.00,,,0.00,0.000000,,2013-03-12 10:42:00,
2013-03-12 03:52:00,45.0,45.0,-100.00,SE,126,4.0,5.0,99,0.00,,,0.00,0.000000,,2013-03-12 10:52:00,
2013-03-12 04:02:00,45.0,45.0,-100.00,SE,126,4.0,5.0,99,0.00,,,0.00,0.000000,,2013-03-12 11:02:00,
2013-03-12 04:11:00,45.0,45.0,-100.00,SE,126,4.0,5.0,99,0.00,,,0.00,0.000000,,2013-03-12 11:11:00,
2013-03-12 04:32:00,45.0,45.0,-100.00,SE,126,4.0,6.0,99,0.00,,,0.00,0.000000,,2013-03-12 11:32:00,
2013-03-12 04:42:00,45.0,45.0,-100.00,SE,126,4.0,6.0,99,0.00,,,0.00,0.000000,,2013-03-12 11:42:00,
2013-03-12 04:52:00,45.0,45.0,-100.00,SE,126,4.0,6.0,99,0.00,,,0.00,0.000000,,2013-03-12 11:52:00,
2013-03-12 05:02:00,45.0,45.0,-100.00,SE,126,4.0,6.0,99,0.00,,,0.00,0.000000,,2013-03-12 12:02:00,
2013-03-12 05:11:00,45.0,45.0,-100.00,SE,126,4.0,6.0,99,0.00,,,0.00,0.000000,,2013-03-12 12:11:00,
2013-03-12 05:32:00,44.0,44.0,-100.00,WNW,290,3.0,7.0,99,0.00,,,0.00,0.000000,,2013-03-12 12:32:00,
2013-03-12 05:42:00,44.0,44.0,-100.00,WNW,290,3.0,7.0,99,0.00,,,0.00,0.000000,,2013-03-12 12:42:00,
2013-03-12 05:52:00,44.0,44.0,-100.00,WNW,290,3.0,7.0,99,0.00,,,0.00,0.000000,,2013-03-12 12:52:00,
2013-03-12 06:02:00,44.0,44.0,-100.00,WNW,290,3.0,7.0,99,0.00,,,0.00,0.000000,,2013-03-12 13:02:00,
2013-03-12 06:12:00,44.0,44.0,-100.00,WNW,290,3.0,7.0,99,0.00,,,0.00,0.000000,,2013-03-12 13:12:00,
2013-03-12 06:43:00,46.0,46.0,-100.00,WNW,291,6.0,11.0,99,0.00,,,0.00,0.000000,,2013-03-12 13:43:00,
2013-03-12 06:52:00,46.0,46.0,-100.00,WNW,291,6.0,11.0,99,0.00,,,0.00,0.000000,,2013-03-12 13:52:00,
2013-03-12 07:02:00,46.0,46.0,-100.00,WNW,291,6.0,11.0,99,0.00,,,0.00,0.000000,,2013-03-12 14:02:00,
2013-03-12 07:12:00,46.0,46.0,-100.00,WNW,291,6.0,11.0,99,0.00,,,0.00,0.000000,,2013-03-12 14:12:00,
2013-03-12 07:33:00,46.0,46.0,-100.00,SW,236,1.0,5.0,99,0.00,,,0.00,0.000000,,2013-03-12 14:33:00,
2013-03-12 07:42:00,46.0,46.0,-100.00,SW,236,1.0,5.0,99,0.00,,,0.00,0.000000,,2013-03-12 14:42:00,
2013-03-12 07:53:00,46.0,46.0,-100.00,SW,236,1.0,5.0,99,0.00,,,0.00,0.000000,,2013-03-12 14:53:00,
2013-03-12 08:02:00,46.0,46.0,-100.00,SW,236,1.0,5.0,99,0.00,,,0.00,0.000000,,2013-03-12 15:02:00,
2013-03-12 08:12:00,46.0,46.0,-100.00,SW,236,1.0,5.0,99,0.00,,,0.00,0.000000,,2013-03-12 15:12:00,
2013-03-12 08:42:00,46.0,46.0,-100.00,WNW,283,5.0,6.0,99,0.00,,,-99.99,8.000000,,2013-03-12 15:42:00,
2013-03-12 08:53:00,46.0,46.0,-100.00,WNW,283,5.0,6.0,99,0.00,,,-99.99,8.000000,,2013-03-12 15:53:00,
2013-03-12 09:02:00,46.0,46.0,-100.00,WNW,283,5.0,6.0,99,0.00,,,-99.99,8.000000,,2013-03-12 16:02:00,
2013-03-12 09:12:00,46.0,46.0,-100.00,WNW,283,5.0,6.0,99,0.00,,,-99.99,8.000000,,2013-03-12 16:12:00,
2013-03-12 09:43:00,46.0,46.0,-100.00,NW,314,6.0,10.0,99,0.01,,,0.01,55.000000,,2013-03-12 16:43:00,
2013-03-12 09:53:00,46.0,46.0,-100.00,NW,314,6.0,10.0,99,0.01,,,0.01,55.000000,,2013-03-12 16:53:00,
2013-03-12 10:02:00,46.0,46.0,-100.00,NW,314,6.0,10.0,99,0.01,,,0.01,55.000000,,2013-03-12 17:02:00,
2013-03-12 10:12:00,46.0,46.0,-100.00,NW,314,6.0,10.0,99,0.01,,,0.01,55.000000,,2013-03-12 17:12:00,
2013-03-12 10:44:00,48.0,47.0,-100.00,North,4,3.0,9.0,98,0.00,,,0.01,167.000000,,2013-03-12 17:44:00,
2013-03-12 10:53:00,48.0,47.0,-100.00,North,4,3.0,9.0,98,0.00,,,0.01,167.000000,,2013-03-12 17:53:00,
2013-03-12 11:02:00,48.0,47.0,-100.00,North,4,3.0,9.0,98,0.00,,,0.01,167.000000,,2013-03-12 18:02:00,
2013-03-12 11:12:00,48.0,47.0,-100.00,North,4,3.0,9.0,98,0.00,,,0.01,167.000000,,2013-03-12 18:12:00,
2013-03-12 11:43:00,49.0,48.0,-100.00,East,88,2.0,5.0,98,0.00,,,0.01,243.000000,,2013-03-12 18:43:00,
2013-03-12 11:53:00,49.0,48.0,-100.00,East,88,2.0,5.0,98,0.00,,,0.01,243.000000,,2013-03-12 18:53:00,
2013-03-12 12:03:00,49.0,48.0,-100.00,East,88,2.0,5.0,98,0.00,,,0.01,243.000000,,2013-03-12 19:03:00,
2013-03-12 12:12:00,49.0,48.0,-100.00,East,88,2.0,5.0,98,0.00,,,0.01,243.000000,,2013-03-12 19:12:00,
2013-03-12 12:43:00,50.0,49.0,-100.00,WNW,290,3.0,6.0,97,0.00,,,0.01,182.000000,,2013-03-12 19:43:00,
2013-03-12 12:53:00,50.0,49.0,-100.00,WNW,290,3.0,6.0,97,0.00,,,0.01,182.000000,,2013-03-12 19:53:00,
2013-03-12 13:02:00,50.0,49.0,-100.00,WNW,290,3.0,6.0,97,0.00,,,0.01,182.000000,,2013-03-12 20:02:00,
2013-03-12 13:11:00,50.0,49.0,-100.00,WNW,290,3.0,6.0,97,0.00,,,0.01,182.000000,,2013-03-12 20:11:00,
2013-03-12 13:33:00,52.0,50.0,-100.00,NNW,334,3.0,8.0,92,0.00,,,0.01,265.000000,,2013-03-12 20:33:00,
2013-03-12 13:42:00,52.0,50.0,-100.00,NNW,334,3.0,8.0,92,0.00,,,0.01,265.000000,,2013-03-12 20:42:00,
2013-03-12 13:53:00,52.0,50.0,-100.00,NNW,334,3.0,8.0,92,0.00,,,0.01,265.000000,,2013-03-12 20:53:00,
2013-03-12 14:02:00,52.0,50.0,-100.00,NNW,334,3.0,8.0,92,0.00,,,0.01,265.000000,,2013-03-12 21:02:00,
2013-03-12 14:12:00,52.0,50.0,-100.00,NNW,334,3.0,8.0,92,0.00,,,0.01,265.000000,,2013-03-12 21:12:00,
2013-03-12 14:33:00,54.0,49.0,-100.00,ENE,77,4.0,7.0,84,0.00,,,0.01,358.000000,,2013-03-12 21:33:00,
2013-03-12 14:43:00,54.0,49.0,-100.00,ENE,77,4.0,7.0,84,0.00,,,0.01,358.000000,,2013-03-12 21:43:00,
2013-03-12 14:52:00,54.0,49.0,-100.00,ENE,77,4.0,7.0,84,0.00,,,0.01,358.000000,,2013-03-12 21:52:00,
2013-03-12 15:02:00,54.0,49.0,-100.00,ENE,77,4.0,7.0,84,0.00,,,0.01,358.000000,,2013-03-12 22:02:00,
2013-03-12 15:12:00,54.0,49.0,-100.00,ENE,77,4.0,7.0,84,0.00,,,0.01,358.000000,,2013-03-12 22:12:00,
2013-03-12 15:33:00,55.0,48.0,-100.00,NW,318,7.0,11.0,78,0.00,,,0.01,458.000000,,2013-03-12 22:33:00,
2013-03-12 15:43:00,55.0,48.0,-100.00,NW,318,7.0,11.0,78,0.00,,,0.01,458.000000,,2013-03-12 22:43:00,
2013-03-12 15:53:00,55.0,48.0,-100.00,NW,318,7.0,11.0,78,0.00,,,0.01,458.000000,,2013-03-12 22:53:00,
2013-03-12 16:02:00,55.0,48.0,-100.00,NW,318,7.0,11.0,78,0.00,,,0.01,458.000000,,2013-03-12 23:02:00,
2013-03-12 16:12:00,55.0,48.0,-100.00,NW,318,7.0,11.0,78,0.00,,,0.01,458.000000,,2013-03-12 23:12:00,
2013-03-12 16:34:00,57.0,49.0,-100.00,NNE,26,3.0,10.0,75,0.00,,,0.01,304.000000,,2013-03-12 23:34:00,
2013-03-12 16:43:00,57.0,49.0,-100.00,NNE,26,3.0,10.0,75,0.00,,,0.01,304.000000,,2013-03-12 23:43:00,
2013-03-12 16:52:00,57.0,49.0,-100.00,NNE,26,3.0,10.0,75,0.00,,,0.01,304.000000,,2013-03-12 23:52:00,
2013-03-12 17:02:00,57.0,49.0,-100.00,NNE,26,3.0,10.0,75,0.00,,,0.01,304.000000,,2013-03-13 00:02:00,
2013-03-12 17:12:00,57.0,49.0,-100.00,NNE,26,3.0,10.0,75,0.00,,,0.01,304.000000,,2013-03-13 00:12:00,
2013-03-12 17:33:00,52.0,47.0,-100.00,NW,320,9.0,11.0,82,0.00,,,0.01,245.000000,,2013-03-13 00:33:00,
2013-03-12 17:42:00,52.0,47.0,-100.00,NW,320,9.0,11.0,82,0.00,,,0.01,245.000000,,2013-03-13 00:42:00,
2013-03-12 17:53:00,52.0,47.0,-100.00,NW,320,9.0,11.0,82,0.00,,,0.01,245.000000,,2013-03-13 00:53:00,
2013-03-12 18:02:00,52.0,47.0,-100.00,NW,320,9.0,11.0,82,0.00,,,0.01,245.000000,,2013-03-13 01:02:00,
2013-03-12 18:12:00,52.0,47.0,-100.00,NW,320,9.0,11.0,82,0.00,,,0.01,245.000000,,2013-03-13 01:12:00,
2013-03-12 18:33:00,49.0,46.0,-100.00,NW,315,6.0,14.0,91,0.00,,,0.01,53.000000,,2013-03-13 01:33:00,
2013-03-12 18:43:00,49.0,46.0,-100.00,NW,315,6.0,14.0,91,0.00,,,0.01,53.000000,,2013-03-13 01:43:00,
2013-03-12 18:52:00,49.0,46.0,-100.00,NW,315,6.0,14.0,91,0.00,,,0.01,53.000000,,2013-03-13 01:52:00,
2013-03-12 19:02:00,49.0,46.0,-100.00,NW,315,6.0,14.0,91,0.00,,,0.01,53.000000,,2013-03-13 02:02:00,
2013-03-12 19:11:00,49.0,46.0,-100.00,NW,315,6.0,14.0,91,0.00,,,0.01,53.000000,,2013-03-13 02:11:00,
2013-03-12 19:33:00,48.0,45.0,-100.00,North,2,2.0,12.0,89,0.00,,,0.01,16.000000,,2013-03-13 02:33:00,
2013-03-12 19:43:00,48.0,45.0,-100.00,North,2,2.0,12.0,89,0.00,,,0.01,16.000000,,2013-03-13 02:43:00,
2013-03-12 19:52:00,48.0,45.0,-100.00,North,2,2.0,12.0,89,0.00,,,0.01,16.000000,,2013-03-13 02:52:00,
2013-03-12 20:02:00,48.0,45.0,-100.00,North,2,2.0,12.0,89,0.00,,,0.01,16.000000,,2013-03-13 03:02:00,
2013-03-12 20:12:00,48.0,45.0,-100.00,North,2,2.0,12.0,89,0.00,,,0.01,16.000000,,2013-03-13 03:12:00,
2013-03-12 20:32:00,46.0,44.0,-100.00,WNW,303,4.0,5.0,93,0.00,,,0.01,0.000000,,2013-03-13 03:32:00,
2013-03-12 20:42:00,46.0,44.0,-100.00,WNW,303,4.0,5.0,93,0.00,,,0.01,0.000000,,2013-03-13 03:42:00,
2013-03-12 20:52:00,46.0,44.0,-100.00,WNW,303,4.0,5.0,93,0.00,,,0.01,0.000000,,2013-03-13 03:52:00,
2013-03-12 21:02:00,46.0,44.0,-100.00,WNW,303,4.0,5.0,93,0.00,,,0.01,0.000000,,2013-03-13 04:02:00,
2013-03-12 21:12:00,46.0,44.0,-100.00,WNW,303,4.0,5.0,93,0.00,,,0.01,0.000000,,2013-03-13 04:12:00,
2013-03-12 21:32:00,45.0,44.0,-100.00,NNE,27,3.0,7.0,96,0.00,,,0.01,0.000000,,2013-03-13 04:32:00,
2013-03-12 21:43:00,45.0,44.0,-100.00,NNE,27,3.0,7.0,96,0.00,,,0.01,0.000000,,2013-03-13 04:43:00,
2013-03-12 21:53:00,45.0,44.0,-100.00,NNE,27,3.0,7.0,96,0.00,,,0.01,0.000000,,2013-03-13 04:53:00,
2013-03-12 22:02:00,45.0,44.0,-100.00,NNE,27,3.0,7.0,96,0.00,,,0.01,0.000000,,2013-03-13 05:02:00,
2013-03-12 22:12:00,45.0,44.0,-100.00,NNE,27,3.0,7.0,96,0.00,,,0.01,0.000000,,2013-03-13 05:12:00,
2013-03-12 22:32:00,45.0,44.0,-100.00,SSE,156,1.0,5.0,97,0.00,,,0.01,0.000000,,2013-03-13 05:32:00,
2013-03-12 22:42:00,45.0,44.0,-100.00,SSE,156,1.0,5.0,97,0.00,,,0.01,0.000000,,2013-03-13 05:42:00,
2013-03-12 22:52:00,45.0,44.0,-100.00,SSE,156,1.0,5.0,97,0.00,,,0.01,0.000000,,2013-03-13 05:52:00,
2013-03-12 23:02:00,45.0,44.0,-100.00,SSE,156,1.0,5.0,97,0.00,,,0.01,0.000000,,2013-03-13 06:02:00,
2013-03-12 23:12:00,45.0,44.0,-100.00,SSE,156,1.0,5.0,97,0.00,,,0.01,0.000000,,2013-03-13 06:12:00,
2013-03-12 23:33:00,45.0,44.0,-100.00,SE,144,5.0,7.0,98,0.00,,,-99.99,0.000000,,2013-03-13 06:33:00,
2013-03-12 23:42:00,45.0,44.0,-100.00,SE,144,5.0,7.0,98,0.00,,,-99.99,0.000000,,2013-03-13 06:42:00,
2013-03-12 23:52:00,45.0,44.0,-100.00,SE,144,5.0,7.0,98,0.00,,,-99.99,0.000000,,2013-03-13 06:52:00,